Showing default

CORVUS BC2, 42846

Orbit data source: Space-Track

CORVUS BC2, 42846 is a payload satellite owned by Astro Digital (US) in SSO that was launched on Fri, 14 Jul 2017 UTC via a SOYUZ-2-1A launch vehicle from the Tyuratam Missile And Space Complex (TTMTR). Payload-class satellites include a variety of spacecraft equipped with specific instruments for various scientific and technological missions. These include communications satellites like Starlink; space stations such as the ISS; scientific satellites like the Hubble; Earth observation satellites from companies like Planet Labs, Umbra, and HawkEye 360; GPS; miniature CubeSats for education and research; and military/defense satellites.

Loading next visibility...
Identifier
42846, 2017-042X
Orbit
SSO
Country
Flag of USUS
Related business
Manufacturer
Astro Digital
Mission
Operational Commercial Imaging
Bus & Motor
CUBESAT 6U, Unknown motor
Mass
10 kg wet, 10 kg dry
Launch date (UTC)
2017-07-14 (9 years ago)
Launch vehicle
SOYUZ-2-1A
Launch site
Tyuratam Missile And Space Complex (TTMTR)
Object type
Payload
Rocket body
Debris
Shape & HBR
Box + 2 Pan, 0.2 m
Radar Cross Section
0.092 m², Medium (>0.1 m² and < 1m²)

Expand to show TLE details & history
Last TLE update: 15 hours ago

TLE from 15 hours ago
0 CORVUS BC2
1 42846U 17042X   26236.87477298  .00002741  00000-0  18860-3 0  9999
2 42846  97.4135  35.6042 0011762 232.8979 127.1174 15.06650076497405
Epoch: 2026-08-24T20:59Z
TLE epoch observation values (Epoch: 2026-08-24T20:59:40.385Z)
Latitude
-0.00008°
Longitude
107.53573°
Altitude
554.439 km
Speed
7.582 km/s
True Right ascension
02h 22m 25s
True Declination
0° 00' 00"
Sunlit
Object was in full shadow at epoch
Visualization orbit readout
Latitude
Unknown
Longitude
Unknown
Altitude
Unknown
Speed
Unknown
Apparent Right ascension
Unknown
Apparent Declination
Unknown
Sunlit
N/A
Visualization observer readout
Local Sidereal Time
03:27:33
Azimuth
Unknown
Elevation
Unknown
Doppler factor
Unknown
Orbital elements
Apogee altitude
551.57 km
Perigee altitude
535.288 km
Semi-major axis
6,921.566 km
Eccentricity
0.00118
Inclination
97.4135°
RAAN
35.6042°
Arg. of periapsis
232.8979°
True anomaly
127.22478°
Mean anomaly
127.1174°
Eccentric anomaly
127.1711°
Mean motion
3.76909 °/min
Orbital period
95.51 mins
BSTAR
0.0001886
Loading maneuver chart data...
Computing Atmospheric mass density...
Loading historical data...
Loading historical data...
Loading historical data...
Loading historical data...
Loading historical data...
Loading historical data...
Loading historical data...

Documentation

Showing up to 5 results
|